When you browse on this site, cookies collect data to enhance your experience and personalize the content and advertising you see.
Visit our Privacy Policy to learn more. By continuing to use the site, you agree to this use of cookies and data.
  • In Österreich
  • Länderverzeichnis
  • Für 7 Tage
  • Wassertemperatur
  • Satellitenkarten
  • Wetterkarte
  • News
  • Widgets
  • user-avatar
    Anmelden

    Stündliche Wetter Qala i Naw

    Heute, 22 April, Montag

    Zeit Temperatur Niederschläge Wind Luftdruck Luftfeuchtigkeit
    00:00 +11°C° 0 mm 1 m/S 680 mmHg 86%
    01:00 +11°C° 0 mm 1 m/S 679 mmHg 87%
    02:00 +11°C° 0 mm 1 m/S 679 mmHg 86%
    03:00 +11°C° 0 mm 1 m/S 679 mmHg 86%
    04:00 +11°C° 0 mm 1 m/S 678 mmHg 85%
    05:00 +11°C° 0 mm 1 m/S 678 mmHg 82%
    06:00 +12°C° 0 mm 1 m/S 679 mmHg 78%
    07:00 +12°C° 0 mm 2 m/S 679 mmHg 75%
    08:00 +14°C° 0 mm 2 m/S 679 mmHg 69%
    09:00 +14°C° 0 mm 3 m/S 679 mmHg 63%
    10:00 +17°C° 0 mm 3 m/S 679 mmHg 58%
    11:00 +19°C° 0 mm 4 m/S 679 mmHg 53%
    12:00 +20°C° 0 mm 4 m/S 679 mmHg 49%
    13:00 +22°C° 0 mm 4 m/S 679 mmHg 45%
    14:00 +22°C° 0 mm 4 m/S 679 mmHg 45%
    15:00 +22°C° 0 mm 4 m/S 679 mmHg 46%
    16:00 +22°C° 0 mm 4 m/S 678 mmHg 46%
    17:00 +21°C° 0 mm 3 m/S 678 mmHg 51%
    18:00 +20°C° 0 mm 2 m/S 678 mmHg 56%
    19:00 +20°C° 0 mm 1 m/S 678 mmHg 61%
    20:00 +18°C° 0.2 mm 2 m/S 678 mmHg 63%
    21:00 +18°C° 0.2 mm 2 m/S 678 mmHg 66%
    22:00 +17°C° 0.2 mm 2 m/S 678 mmHg 68%
    23:00 +18°C° 0.2 mm 2 m/S 678 mmHg 66%

    Morgen, 23 April, Dienstag

    Zeit Temperatur Niederschläge Wind Luftdruck Luftfeuchtigkeit
    00:00 +18°C° 0.2 mm 3 m/S 678 mmHg 65%
    01:00 +18°C° 0.2 mm 3 m/S 678 mmHg 63%
    02:00 +18°C° 0.1 mm 3 m/S 678 mmHg 60%
    03:00 +19°C° 0.1 mm 3 m/S 677 mmHg 58%
    04:00 +19°C° 0.1 mm 3 m/S 677 mmHg 55%
    05:00 +19°C° 0 mm 3 m/S 678 mmHg 55%
    06:00 +20°C° 0 mm 2 m/S 678 mmHg 55%
    07:00 +20°C° 0 mm 2 m/S 678 mmHg 56%
    08:00 +23°C° 0 mm 2 m/S 679 mmHg 50%
    09:00 +25°C° 0 mm 3 m/S 679 mmHg 44%
    10:00 +27°C° 0 mm 4 m/S 680 mmHg 38%
    11:00 +28°C° 0 mm 5 m/S 679 mmHg 39%
    12:00 +28°C° 0 mm 6 m/S 679 mmHg 40%
    13:00 +28°C° 0 mm 8 m/S 679 mmHg 41%
    14:00 +24°C° 3 mm 8 m/S 678 mmHg 56%
    15:00 +21°C° 3 mm 8 m/S 677 mmHg 70%
    16:00 +17°C° 3 mm 9 m/S 676 mmHg 84%
    17:00 +17°C° 2.5 mm 7 m/S 677 mmHg 85%
    18:00 +16°C° 2.5 mm 5 m/S 677 mmHg 85%
    19:00 +16°C° 2.5 mm 3 m/S 678 mmHg 86%
    20:00 +14°C° 3.1 mm 4 m/S 678 mmHg 85%
    21:00 +13°C° 3.1 mm 5 m/S 679 mmHg 84%
    22:00 +10°C° 3.1 mm 7 m/S 679 mmHg 84%
    23:00 +9°C° 0.2 mm 6 m/S 679 mmHg 83%

    übermorgen, 24 April, Mittwoch

    Zeit Temperatur Niederschläge Wind Luftdruck Luftfeuchtigkeit
    00:00 +9°C° 0.2 mm 6 m/S 679 mmHg 82%
    01:00 +8°C° 0.2 mm 5 m/S 679 mmHg 82%
    02:00 +8°C° 0.6 mm 5 m/S 679 mmHg 85%
    03:00 +7°C° 0.6 mm 5 m/S 679 mmHg 88%
    04:00 +7°C° 0.6 mm 6 m/S 679 mmHg 92%
    05:00 +5°C° 1.7 mm 6 m/S 680 mmHg 92%
    06:00 +5°C° 1.7 mm 6 m/S 680 mmHg 92%
    07:00 +4°C° 1.7 mm 7 m/S 681 mmHg 92%
    08:00 +4°C° 1 mm 6 m/S 681 mmHg 92%
    09:00 +5°C° 1 mm 5 m/S 682 mmHg 91%
    10:00 +5°C° 1 mm 4 m/S 682 mmHg 90%
    11:00 +5°C° 0.2 mm 4 m/S 682 mmHg 89%
    12:00 +5°C° 0.2 mm 4 m/S 682 mmHg 89%
    13:00 +5°C° 0.2 mm 4 m/S 682 mmHg 88%
    14:00 +5°C° 0.1 mm 4 m/S 682 mmHg 86%
    15:00 +7°C° 0.1 mm 3 m/S 682 mmHg 84%
    16:00 +7°C° 0.1 mm 3 m/S 682 mmHg 81%
    17:00 +7°C° 0.1 mm 3 m/S 683 mmHg 81%
    18:00 +7°C° 0.1 mm 3 m/S 684 mmHg 81%
    19:00 +7°C° 0.1 mm 2 m/S 684 mmHg 81%
    20:00 +7°C° 0.1 mm 2 m/S 684 mmHg 81%
    21:00 +7°C° 0.1 mm 2 m/S 685 mmHg 82%
    22:00 +7°C° 0.1 mm 2 m/S 685 mmHg 83%
    23:00 +6°C° 0 mm 2 m/S 684 mmHg 84%

    25 April, Donnerstag

    Zeit Temperatur Niederschläge Wind Luftdruck Luftfeuchtigkeit
    00:00 +6°C° 0 mm 2 m/S 684 mmHg 85%
    01:00 +7°C° 0 mm 1 m/S 684 mmHg 85%
    02:00 +6°C° 0 mm 1 m/S 684 mmHg 86%
    03:00 +6°C° 0 mm 1 m/S 684 mmHg 87%
    04:00 +6°C° 0 mm 1 m/S 684 mmHg 87%
    05:00 +6°C° 0 mm 1 m/S 684 mmHg 83%
    06:00 +7°C° 0 mm 1 m/S 684 mmHg 79%
    07:00 +7°C° 0 mm 1 m/S 684 mmHg 75%
    08:00 +8°C° 0 mm 1 m/S 684 mmHg 71%
    09:00 +8°C° 0 mm 2 m/S 684 mmHg 67%
    10:00 +9°C° 0 mm 3 m/S 684 mmHg 63%
    11:00 +11°C° 0 mm 3 m/S 684 mmHg 59%
    12:00 +12°C° 0 mm 3 m/S 684 mmHg 56%
    13:00 +13°C° 0 mm 4 m/S 684 mmHg 52%
    14:00 +13°C° 0 mm 4 m/S 683 mmHg 51%
    15:00 +13°C° 0 mm 4 m/S 683 mmHg 50%
    16:00 +13°C° 0 mm 4 m/S 683 mmHg 49%
    17:00 +12°C° 0 mm 4 m/S 683 mmHg 52%
    18:00 +12°C° 0 mm 3 m/S 684 mmHg 56%
    19:00 +11°C° 0 mm 3 m/S 684 mmHg 59%
    20:00 +10°C° 0 mm 2 m/S 684 mmHg 61%
    21:00 +9°C° 0 mm 2 m/S 684 mmHg 64%
    22:00 +10°C° 0 mm 1 m/S 684 mmHg 66%
    23:00 +9°C° 0 mm 1 m/S 684 mmHg 67%

    26 April, Freitag

    Zeit Temperatur Niederschläge Wind Luftdruck Luftfeuchtigkeit
    00:00 +9°C° 0 mm 1 m/S 683 mmHg 68%
    01:00 +9°C° 0 mm 1 m/S 683 mmHg 69%
    02:00 +8°C° 0 mm 1 m/S 683 mmHg 69%
    03:00 +8°C° 0 mm 1 m/S 683 mmHg 70%
    04:00 +7°C° 0 mm 1 m/S 683 mmHg 70%
    05:00 +8°C° 0 mm 1 m/S 683 mmHg 66%
    06:00 +8°C° 0 mm 1 m/S 683 mmHg 62%
    07:00 +9°C° 0 mm 1 m/S 684 mmHg 59%
    08:00 +9°C° 0 mm 2 m/S 684 mmHg 56%
    09:00 +10°C° 0 mm 2 m/S 684 mmHg 53%
    10:00 +11°C° 0 mm 3 m/S 684 mmHg 50%
    11:00 +12°C° 0 mm 4 m/S 684 mmHg 48%
    12:00 +13°C° 0 mm 4 m/S 684 mmHg 46%
    13:00 +14°C° 0 mm 5 m/S 684 mmHg 44%
    14:00 +14°C° 0 mm 5 m/S 684 mmHg 43%
    15:00 +14°C° 0 mm 5 m/S 684 mmHg 43%
    16:00 +15°C° 0 mm 5 m/S 684 mmHg 42%
    17:00 +14°C° 0 mm 4 m/S 684 mmHg 46%
    18:00 +13°C° 0 mm 3 m/S 684 mmHg 49%
    19:00 +12°C° 0 mm 3 m/S 684 mmHg 52%
    20:00 +12°C° 0 mm 2 m/S 684 mmHg 54%
    21:00 +12°C° 0 mm 2 m/S 684 mmHg 57%
    22:00 +11°C° 0 mm 1 m/S 685 mmHg 59%
    23:00 +10°C° 0 mm 1 m/S 684 mmHg 60%

    27 April, Samstag

    Zeit Temperatur Niederschläge Wind Luftdruck Luftfeuchtigkeit
    00:00 +10°C° 0 mm 1 m/S 684 mmHg 62%
    01:00 +10°C° 0 mm 1 m/S 684 mmHg 63%
    02:00 +9°C° 0 mm 1 m/S 683 mmHg 63%
    03:00 +9°C° 0 mm 1 m/S 683 mmHg 64%
    04:00 +8°C° 0 mm 1 m/S 683 mmHg 65%
    05:00 +9°C° 0 mm 1 m/S 684 mmHg 60%
    06:00 +10°C° 0 mm 1 m/S 684 mmHg 56%
    07:00 +10°C° 0 mm 1 m/S 684 mmHg 51%
    08:00 +12°C° 0 mm 1 m/S 684 mmHg 49%
    09:00 +13°C° 0 mm 2 m/S 684 mmHg 47%
    10:00 +13°C° 0 mm 3 m/S 684 mmHg 44%
    11:00 +14°C° 0 mm 3 m/S 684 mmHg 43%
    12:00 +15°C° 0 mm 4 m/S 684 mmHg 41%
    13:00 +17°C° 0 mm 4 m/S 683 mmHg 39%
    14:00 +17°C° 0 mm 4 m/S 683 mmHg 39%
    15:00 +18°C° 0 mm 4 m/S 683 mmHg 39%
    16:00 +18°C° 0 mm 4 m/S 683 mmHg 39%
    17:00 +17°C° 0 mm 4 m/S 683 mmHg 43%
    18:00 +16°C° 0 mm 3 m/S 683 mmHg 46%
    19:00 +14°C° 0 mm 2 m/S 684 mmHg 50%
    20:00 +14°C° 0 mm 1 m/S 684 mmHg 53%
    21:00 +13°C° 0 mm 1 m/S 684 mmHg 56%
    22:00 +12°C° 0 mm 0 m/S 684 mmHg 59%
    23:00 +11°C° 0 mm 0 m/S 684 mmHg 60%
    Mehr zeigen